GW1525 Weather Reports


Display with metric or nautical units.
time (UTC)temp
F
wind
direction
speed
MPH
gust
MPH
rain 1hr
in
rain 24hr
in
rain mn
in
humidity
%
barometer
mb
20260502181556 41 227 0.0 0.0 0.00 0.00 0.00 75 1024.3
20260502180106 43 226 0.0 2.0 0.00 0.00 0.00 74 1024.3
20260502161601 50 233 4.0 8.0 0.00 0.00 0.00 61 1024.8
20260502151553 53 86 3.0 9.0 0.00 0.00 0.00 59 1025.5
20260502123059 53 360 2.0 9.0 0.00 0.00 0.00 59 1026.7
20260502120104 53 179 2.0 8.0 0.00 0.00 0.00 59 1026.9
20260502113058 52 27 1.0 10.0 0.00 0.00 0.00 60 1027.1
20260502110059 53 269 2.0 6.0 0.00 0.00 0.00 59 1027.4
20260502103105 53 172 2.0 7.0 0.00 0.00 0.00 58 1027.8
20260502071349 46 35 2.0 5.0 0.00 0.00 0.00 66 1029.1
20260502063039 41 305 1.0 4.0 0.00 0.00 0.00 74 1028.9
20260502061542 33 209 0.0 0.0 0.00 0.00 0.00 90 1028.9
20260502054534 29 207 0.0 0.0 0.00 0.00 0.00 84 1028.7
20260502051545 30 205 0.0 0.0 0.00 0.00 0.00 81 1028.7
20260502044536 33 206 0.0 0.0 0.00 0.00 0.00 78 1028.6
20260502043029 34 206 0.0 4.0 0.00 0.00 0.00 77 1028.6
20260502040043 34 206 2.0 5.0 0.00 0.00 0.00 80 1028.7
20260502033041 31 205 2.0 4.0 0.00 0.00 0.00 83 1028.6
20260502030038 28 205 0.0 1.0 0.00 0.00 0.00 86 1028.5
20260502024538 28 206 0.0 0.0 0.00 0.00 0.00 83 1028.5
20260502021535 31 206 0.0 0.0 0.00 0.00 0.00 80 1028.6
20260502020035 32 205 0.0 0.0 0.00 0.00 0.00 79 1028.6
20260502014522 33 209 0.0 1.0 0.00 0.00 0.00 79 1028.7
20260502011536 34 211 2.0 4.0 0.00 0.00 0.00 80 1028.9
20260502010048 32 207 1.0 4.0 0.00 0.00 0.00 84 1028.8
20260502004539 31 208 0.0 0.0 0.00 0.00 0.00 81 1029.0
20260502003028 33 207 0.0 1.0 0.00 0.00 0.00 80 1029.1
20260502000035 36 211 1.0 5.0 0.00 0.00 0.00 76 1029.2
20260501233037 37 146 2.0 5.0 0.00 0.00 0.00 76 1029.3
20260501231536 37 88 1.0 6.0 0.00 0.00 0.00 78 1029.2
20260501224554 32 181 1.0 4.0 0.00 0.00 0.00 90 1029.2
20260501223035 30 263 0.0 0.0 0.00 0.00 0.00 89 1029.0
20260501220101 30 264 0.0 0.0 0.00 0.00 0.00 91 1028.8
20260501213037 30 264 0.0 0.0 0.00 0.00 0.00 89 1028.8
20260501210039 30 264 0.0 0.0 0.00 0.00 0.00 89 1028.8
20260501204534 30 265 0.0 0.0 0.00 0.00 0.00 87 1028.6
20260501203032 30 264 0.0 0.0 0.00 0.00 0.00 87 1028.5
20260501200039 31 264 0.0 0.0 0.00 0.00 0.00 85 1028.3
20260501193036 32 265 0.0 0.0 0.00 0.00 0.00 83 1028.2
20260501190038 33 265 0.0 0.0 0.00 0.00 0.00 82 1027.9
20260501184535 34 265 0.0 0.0 0.00 0.00 0.00 80 1027.8
20260501183034 35 266 0.0 0.0 0.00 0.00 0.00 78 1027.6